RH
98 98 92 79 68 60 56 61 77 88 95 98 96 97 98 93 90 90 94 95 96 96 93 92 92 91 91 90 90 92 91 89 92 93 94 92 94 91 91 87 84 84 88 87 90 97 95 90 79 77 75 70 66 69
98 91 83 74 66 63 53 46 55 70 89 95 96 99 97 98 95 92 92 95 95 97 94 97 95 97 97 92 90 88 82 84 89 91 92 96 93 93 87 84 79 80 70 71 70 66 64 62 63 58 56 62 68 74
75 72 69 64 60 56 50 53 49 49 69 85 93 94 98 98 98 98 97 97 97 95 91 85 75 84 85 88 93 87 81 85 83 87 91 94 92 84 86 81 79 70 68 71 60 45 46 45 40 43 52 53 54 58
72 68 68 70 69 66 62 60 55 51 61 73 94 93 92 96 98 98 98 98 98 96 91 79 78 77 78 79 78 81 86 86 92 94 96 95 91 85 85 81 78 62 61 60 57 40 36 29 32 40 46 50 46 48
52 55 60 64 66 71 83 81 82 74 67 71 77 91 93 96 96 97 99 98 98 98 88 79 75 73 71 73 75 82 91 93 95 97 98 95 93 98 97 94 75 54 53 55 49 33 40 35 39 50 51 54 56 58
62 60 57 56 64 75 81 87 86 86 84 83 82 87 93 96 97 97 95 94 96 99 92 82 70 64 70 73 70 75 78 86 88 93 93 89 92 93 91 81 41 39 41 40 41 42 43 44 50 54 56 58 62 67
72 68 64 66 62 62 71 82 88 91 85 92 92 96 98 98 98 94 86 85 89 93 90 84 72 60 60 66 70 75 85 88 94 95 96 94 83 84 80 65 27 39 41 47 48 53 54 62 66 70 68 76 83 85
39 49 54 61 62 72 60 65 69 77 85 85 93 98 98 98 97 94 89 90 87 88 89 87 74 63 64 74 84 88 93 93 89 86 80 78 79 79 70 42 43 46 49 51 56 62 66 70 67 68 70 69 69 68
19 21 27 38 55 68 85 75 65 66 67 69 73 79 78 79 76 75 75 76 77 81 84 76 73 71 80 86 92 95 95 92 88 84 77 76 74 68 53 55 55 58 59 61 60 66 69 72 71 69 67 67 68 73
20 18 17 16 21 41 66 86 81 69 71 76 72 71 70 68 73 74 75 76 79 80 77 72 78 77 81 83 86 87 84 86 85 75 75 75 69 57 57 60 65 68 66 68 64 64 67 69 68 70 73 73 79 86
29 26 22 19 19 39 55 66 78 78 77 79 78 74 72 71 69 69 72 74 77 75 72 72 74 74 75 79 82 85 88 86 83 72 74 75 70 62 66 69 73 77 77 77 76 70 67 68 74 77 77 79 84 85
40 31 33 29 23 46 50 66 73 78 78 80 79 79 79 81 82 77 75 73 72 73 68 66 69 74 77 78 80 84 83 85 82 78 84 80 71 71 72 74 75 77 78 80 82 84 86 87 86 86 86 85 81 79
44 39 35 34 32 44 60 61 65 74 75 78 81 81 80 80 79 77 74 75 76 76 76 78 80 81 84 88 93 94 94 91 85 89 83 80 80 82 81 82 83 84 84 85 86 87 89 89 89 87 84 81 76 71
49 42 38 36 35 31 51 64 68 72 75 79 79 81 79 75 71 68 69 70 72 74 78 82 85 88 91 94 96 95 95 92 91 88 85 86 90 91 89 88 88 89 87 84 81 78 77 78 80 80 78 77 71 62
50 44 41 40 38 37 33 37 58 74 79 80 82 81 78 74 74 75 76 76 77 78 79 80 80 82 83 86 86 87 90 87 87 86 90 96 97 97 97 98 96 93 89 89 87 86 82 74 75 76 75 72 70 64
50 46 45 45 42 39 38 36 34 57 73 78 79 77 77 77 79 81 81 81 81 82 83 83 82 82 84 88 89 89 89 89 90 92 93 94 94 94 92 89 88 85 84 82 80 79 77 76 75 71 69 67 68 63
47 47 46 45 41 39 40 38 37 42 69 78 81 78 78 79 82 83 84 84 83 82 79 75 72 69 70 74 73 75 79 80 82 85 85 81 77 74 72 68 66 66 65 65 64 65 65 68 68 66 62 61 62 57
51 47 44 43 42 40 40 39 40 43 50 57 62 67 71 71 68 62 52 48 47 46 46 50 53 58 62 65 66 70 71 71 68 66 65 64 61 59 58 58 60 63 65 68 71 67 64 61 59 57 56 56 54 52
51 49 48 47 47 45 43 44 45 48 52 52 51 50 48 48 49 49 49 48 47 46 47 49 53 58 60 63 65 66 66 66 65 67 70 74 75 76 77 78 80 82 86 87 88 86 83 81 77 71 66 63 59 58
51 52 51 49 48 47 46 49 50 51 53 53 52 52 53 52 51 49 47 45 46 47 49 55 58 61 64 67 70 73 76 78 79 79 79 80 83 84 85 87 88 90 92 93 92 93 94 92 92 88 84 79 74 71
44 50 52 51 50 50 50 53 53 54 54 55 55 55 54 53 49 47 47 49 50 54 58 63 65 69 72 75 78 81 84 86 87 86 85 83 88 90 90 93 94 95 96 95 94 93 94 93 92 93 94 93 92 91
35 38 43 49 52 53 55 57 58 57 58 58 58 58 56 52 51 51 55 55 59 64 67 71 74 77 79 82 85 87 88 90 91 92 94 95 93 92 92 95 96 96 97 97 97 95 93 96 99 98 98 97 98 98
38 38 38 39 41 44 49 54 56 56 57 58 56 54 53 53 54 55 58 63 68 72 76 80 82 84 86 89 90 91 92 93 93 93 95 95 94 95 96 98 98 96 94 93 95 96 98 98 96 94 93 93 92 95
42 43 45 44 45 48 46 49 49 50 51 52 53 54 55 57 59 63 67 71 76 80 83 85 88 89 89 90 91 92 93 94 94 93 94 95 95 95 97 96 94 93 93 90 93 98 100 100 99 95 92 92 92 95
40 46 49 54 54 53 55 56 57 56 57 58 59 60 61 64 66 68 71 75 82 82 81 81 85 90 92 93 93 93 93 94 96 95 95 96 95 94 91 92 93 92 93 95 98 100 99 98 96 93 92 93 96 98
53 56 55 59 61 60 62 61 63 64 64 64 65 65 66 67 68 69 71 76 75 76 78 79 81 87 90 92 93 92 92 95 96 95 94 94 94 91 90 91 93 93 98 100 99 100 99 98 97 96 97 98 98 99
57 60 61 63 66 67 69 70 69 67 68 67 68 68 69 71 70 68 69 68 68 69 71 74 77 82 90 93 93 93 94 94 96 95 94 94 93 92 92 93 94 96 97 100 100 100 99 98 97 99 99 99 99 99
64 68 68 66 68 68 69 70 71 67 67 69 70 71 70 67 68 70 69 69 69 69 70 70 72 77 83 91 93 92 94 95 96 93 93 92 92 94 96 99 99 98 99 100 99 99 99 98 99 99 99 99 99 99
65 72 76 76 76 76 76 76 74 71 72 72 71 71 71 72 72 71 72 72 71 72 72 72 71 73 78 85 92 93 94 92 92 91 91 91 91 94 98 98 99 100 100 99 100 99 99 100 99 99 99 99 99 99
68 75 80 84 83 83 85 84 82 81 80 80 79 78 77 78 79 79 78 77 76 75 74 75 75 75 76 83 88 93 95 95 95 95 95 94 96 98 97 98 98 96 96 97 98 99 99 99 99 99 99 99 99 99
77 82 86 90 89 89 89 87 85 84 84 84 85 86 87 88 88 89 88 87 85 84 82 79 77 76 74 78 87 92 93 95 98 98 99 98 98 99 100 99 96 95 95 96 97 98 99 99 99 99 99 99 99 99
84 89 91 92 92 90 89 90 90 88 89 90 91 90 91 92 94 94 95 95 94 92 87 83 81 79 77 76 82 92 97 98 98 99 97 97 99 100 100 99 97 98 96 96 98 98 99 99 99 99 99 99 99 99
87 91 94 97 96 97 96 96 95 94 95 96 95 95 95 97 98 99 99 99 99 97 94 89 85 83 81 78 80 88 97 99 99 99 99 100 100 100 100 100 99 99 99 99 98 98 99 99 99 99 99 99 99 99